AirNav   Everest Fuels
 
 440 users online  

KFES Festus Memorial Airport
Festus, Missouri, USA

GOING TO FESTUS?


FAA INFORMATION EFFECTIVE 21 MAY 2020

Location

FAA Identifier: FES
Lat/Long: 38-11-41.7950N 090-23-07.5350W
38-11.696583N 090-23.125583W
38.1949431,-90.3854264
(estimated)
Elevation: 433 ft. / 132.0 m (surveyed)
Variation: 02W (2020)
From city: 2 miles S of FESTUS, MO
Time zone: UTC -5 (UTC -6 during Standard Time)
Zip code: 63028

Airport Operations

Airport use: Open to the public
Activation date: 12/1941
Control tower: no
ARTCC: KANSAS CITY CENTER
FSS: SAINT LOUIS FLIGHT SERVICE STATION
NOTAMs facility: STL (NOTAM-D service available)
Attendance: 0800-1600
Wind indicator: lighted
Segmented circle: no
Lights: ACTVT MIRL RY 01/19, REIL RY 01 - CTAF.
Beacon: white-green (lighted land airport)
Operates sunset to sunrise.

Airport Communications

CTAF/UNICOM: 122.7
SAINT LOUIS APPROACH: 123.7
SAINT LOUIS DEPARTURE: 123.7

Nearby radio navigation aids

VOR radial/distance  VOR name  Freq  Var
FAMr346/32.1FARMINGTON VORTAC115.7001E
TOYr210/39.3TROY VORTAC116.0004E

Airport Services

Fuel available: 100LL JET-A
CALL NUMBER ON OFFICE DOOR FOR FUEL
Parking: hangars and tiedowns
Airframe service: MAJOR
Powerplant service: MAJOR
Bottled oxygen: NONE
Bulk oxygen: NONE

Runway Information

Runway 1/19

Dimensions: 2202 x 49 ft. / 671 x 15 m
Surface: asphalt/aggregate friction seal coat, in poor condition
PAVEMENT HAS GRASS GROWING IN CRACKS & LOOSE AGGREGATE.
Weight bearing capacity: 
Single wheel: 8.0
Runway edge lights: medium intensity
Runway edge markings: NSTD BASIC MARKINGS; INCORRECT SPACING OF MARKINGS.
RUNWAY 1  RUNWAY 19
Latitude: 38-11.516367N38-11.876000N
Longitude: 090-23.156417W090-23.095117W
Elevation: 430.0 ft.432.0 ft.
Traffic pattern: leftleft
Runway heading: 010 magnetic, 008 true190 magnetic, 188 true
Markings: basic, in fair conditionbasic, in fair condition
Visual slope indicator: 2-box SAVASI on left
VASI OTS INDEFLY.
2-box SAVASI on left
VASI OTS INDEFLY.
Runway end identifier lights: yes
REIL OTS INDEFLY
no
Touchdown point: yes, no lightsyes, no lights
Obstructions: 31 ft. trees, 320 ft. from runway, 130 ft. right of centerline, 3:1 slope to clear
1-20 FT BRUSH & TREES 0-35FT FM RY END 190-250 FT R.; +1-12 FT BRUSH, 0-200 FT FM RY END, 65-200 FT L.
24 ft. trees, 230 ft. from runway, 250 ft. left and right of centerline, 1:1 slope to clear
1-28 FT TREES; BRUSH & ROAD 0-200 FT FM RY END 185-200 FT L; 1- 45 FT TREES & BRUSH 0-200 FT FM RY END 133-250 FT R.

Airport Ownership and Management from official FAA records

Ownership: Privately-owned
Owner: JEFFCO PORT DEVELOPMENT, INC.
900 AIRPORT ROAD
FESTUS, MO 63028
Phone 636-937-2228
Manager: JODY MOORE
900 ARPT RD
FESTUS, MO 63028
Phone 636-937-2228

Airport Operational Statistics

Aircraft based on the field: 25
Single engine airplanes: 24
Multi engine airplanes: 1
    
Aircraft operations: avg 25/day *
67% local general aviation
33% transient general aviation
<1% military
* for 12-month period ending 31 December 2016

Additional Remarks

NTSD RY SAFETY AREA BYND EACH RY END; RY 01 HAS ROLLING & STEEP TERRAIN; RY 19 HAS LARGE DROP OFF 118 FT FM RY END.
FOR CD CTC ST LOUIS APCH AT 314-890-1017.

Instrument Procedures

NOTE: All procedures below are presented as PDF files. If you need a reader for these files, you should download the free Adobe Reader.

NOT FOR NAVIGATION. Please procure official charts for flight.
FAA instrument procedures published for use from 21 May 2020 at 0901Z to 18 June 2020 at 0900Z.

 
IAPs - Instrument Approach Procedures
RNAV (GPS)-A   download (177KB)
NOTE: Special Take-Off Minimums/Departure Procedures apply   download (234KB)

Other nearby airports with instrument procedures:

8WC - Washington County Airport (23 nm SW)
KCPS - St Louis Downtown Airport (25 nm NE)
KFAM - Farmington Regional Airport (26 nm S)
KSUS - Spirit of St Louis Airport (31 nm NW)
KPCD - Perryville Regional Airport (32 nm SE)
 
Loc | Ops | Rwys | IFR | FBO | Links
Com | Nav | Svcs | Stats | Notes
Area around KFES (Festus Memorial Airport)
 
Road maps at: MapQuest Bing Google
 
Aerial photo
WARNING: Photo may not be current or correct
Aerial photo of KFES (Festus Memorial Airport)
Photo by Stephen Seek
Photo taken 28-Sep-2015
looking northwest.

Do you have a better or more recent aerial photo of Festus Memorial Airport that you would like to share? If so, please send us your photo.

 
Sectional chart

 
Airport distance calculator
Flying to Festus Memorial Airport? Find the distance to fly.

From to KFES

Sunrise and sunset
Times for 06-Jun-2020
 Local
(UTC-5)
 Zulu
(UTC)
Morning civil twilight05:0810:08
Sunrise05:3910:39
Sunset20:2101:21
Evening civil twilight20:5301:53

Current date and time
Zulu (UTC)  06-Jun-2020 06:29:37
Local (UTC-5)  06-Jun-2020 01:29:37
 
METAR
KCPS 
25nm NE 
060553Z AUTO 00000KT 8SM CLR 22/21 A2996 RMK AO2 SLP141 T02170211 10300 20217 403170183 51004
KFAM 
26nm S 
060614Z AUTO 00000KT 1/2SM FG VV002 21/21 A3000 RMK AO2
KSUS 
30nm NW 
060603Z AUTO 00000KT 3/4SM R08R/3500VP6000FT BR CLR 21/19 A2996 RMK AO2 T02060194
KPCD 
32nm SE 
060615Z AUTO 00000KT 10SM CLR 21/20 A2996 RMK AO2 T02100201
KSAR 
32nm E 
060615Z AUTO 00000KT 10SM CLR 22/21 A2998 RMK AO2 T02190210
KBLV 
33nm NE 
060456Z AUTO 00000KT 10SM CLR 23/23 A2995 RMK AO2 SLP141 T02310229 $
KSTL 
33nm N 
060551Z 00000KT 10SM SCT250 24/21 A2998 RMK AO2 SLP138 T02440211 10300 20244 403170206 51006
KFYG 
37nm NW 
060615Z AUTO 00000KT 8SM CLR 21/21 A2997 RMK AO2
KSET 
44nm N 
060554Z AUTO 00000KT 10SM CLR 23/21 A2996 RMK AO2 SLP139 T02330211 10294 20228 403170189 50005
KALN 
44nm N 
060615Z AUTO 00000KT 7SM CLR 22/22 A2997 RMK AO2 T02160216
TAF
KCPS 
25nm NE 
060524Z 0606/0706 VRB04KT P6SM SCT200 FM061600 09007KT P6SM SCT200 FM070300 VRB04KT P6SM FEW200
KSUS 
30nm NW 
060524Z 0606/0706 VRB03KT 4SM BR FEW200 TEMPO 0606/0610 1/2SM FG FM061300 VRB04KT P6SM FEW100 FM061500 09006KT P6SM SCT100
NOTAMs
Click for the latest NOTAMs
NOTAMs are issued by the DoD/FAA and will open in a separate window not controlled by AirNav.

 

 
 

FBO, Fuel Providers, and Aircraft Ground Support

  
 Business Name 
 
 Contact 
 
 Services / Description 
 
Fuel Prices
 
Comments
  
Festus Airport Services / CAEE 636-937-2228
[web site]
[email]
Airport management, Aviation fuel, Aircraft parking (ramp or tiedown), Hangars, Hangar leasing / sales, Passenger terminal and lounge, Flight training, ...

More info about Festus Airport Services / CAEE
independent
100LL Jet A
AS $3.80 $3.80 
 Updated 04-Jun-2020
 
   1 read write
AS=Assisted/Self Service
Update Fuel Prices
 

Would you like to see your business listed on this page?

 If your business provides an interesting product or service to pilots, flight crews, aircraft, or users of the Festus Memorial Airport, you should consider listing it here.  To start the listing process, click on the button below
 
Add a business
 

Other Pages about Festus Memorial Airport

festusairport.net
 
Update a link
 
Copyright © AirNav, LLC. All rights reserved. Privacy Policy  Contact